When you browse on this site, cookies collect data to enhance your experience and personalize the content and advertising you see.
Visit our Privacy Policy to learn more. By continuing to use the site, you agree to this use of cookies and data.
  • In Latvia
  • List of Countries
  • For 7 days
  • Water Temperature
  • Weather Map
  • Weather Widgets
  • user-avatar
    Login

    Hourly Weather Odienne

    Today, 15 December, Sunday

    Time Temperature Precipitation Wind Pressure Humidity
    00:00 +22°C° 0 mm 0 mps 723 mmHg 24%
    01:00 +21°C° 0 mm 0 mps 723 mmHg 24%
    02:00 +21°C° 0 mm 0 mps 722 mmHg 24%
    03:00 +20°C° 0 mm 0 mps 722 mmHg 25%
    04:00 +20°C° 0 mm 0 mps 722 mmHg 25%
    05:00 +21°C° 0 mm 1 mps 722 mmHg 25%
    06:00 +24°C° 0 mm 1 mps 723 mmHg 24%
    07:00 +26°C° 0 mm 1 mps 723 mmHg 22%
    08:00 +28°C° 0 mm 1 mps 724 mmHg 21%
    09:00 +31°C° 0 mm 1 mps 724 mmHg 18%
    10:00 +34°C° 0 mm 2 mps 724 mmHg 15%
    11:00 +36°C° 0 mm 2 mps 723 mmHg 12%
    12:00 +37°C° 0 mm 2 mps 723 mmHg 12%
    13:00 +37°C° 0 mm 2 mps 722 mmHg 12%
    14:00 +38°C° 0 mm 2 mps 721 mmHg 12%
    15:00 +36°C° 0 mm 2 mps 721 mmHg 15%
    16:00 +33°C° 0 mm 1 mps 721 mmHg 18%
    17:00 +31°C° 0 mm 1 mps 721 mmHg 21%
    18:00 +29°C° 0 mm 1 mps 721 mmHg 21%
    19:00 +28°C° 0 mm 1 mps 721 mmHg 22%
    20:00 +25°C° 0 mm 0 mps 722 mmHg 22%
    21:00 +24°C° 0 mm 0 mps 722 mmHg 23%
    22:00 +23°C° 0 mm 0 mps 722 mmHg 24%
    23:00 +23°C° 0 mm 0 mps 722 mmHg 24%

    Tomorrow, 16 December, Monday

    Time Temperature Precipitation Wind Pressure Humidity
    00:00 +22°C° 0 mm 0 mps 722 mmHg 25%
    01:00 +22°C° 0 mm 0 mps 721 mmHg 26%
    02:00 +23°C° 0 mm 1 mps 721 mmHg 27%
    03:00 +22°C° 0 mm 1 mps 721 mmHg 28%
    04:00 +20°C° 0 mm 0 mps 721 mmHg 28%
    05:00 +19°C° 0 mm 0 mps 721 mmHg 29%
    06:00 +22°C° 0 mm 0 mps 722 mmHg 26%
    07:00 +24°C° 0 mm 0 mps 723 mmHg 24%
    08:00 +27°C° 0 mm 0 mps 723 mmHg 21%
    09:00 +31°C° 0 mm 1 mps 723 mmHg 18%
    10:00 +35°C° 0 mm 2 mps 723 mmHg 15%
    11:00 +37°C° 0 mm 2 mps 722 mmHg 11%
    12:00 +37°C° 0 mm 2 mps 722 mmHg 11%
    13:00 +38°C° 0 mm 2 mps 721 mmHg 10%
    14:00 +39°C° 0 mm 2 mps 720 mmHg 10%
    15:00 +35°C° 0 mm 1 mps 720 mmHg 13%
    16:00 +33°C° 0 mm 1 mps 720 mmHg 15%
    17:00 +31°C° 0 mm 1 mps 720 mmHg 18%
    18:00 +29°C° 0 mm 1 mps 720 mmHg 18%
    19:00 +26°C° 0 mm 0 mps 721 mmHg 19%
    20:00 +24°C° 0 mm 0 mps 721 mmHg 19%
    21:00 +24°C° 0 mm 0 mps 721 mmHg 20%
    22:00 +23°C° 0 mm 0 mps 721 mmHg 20%
    23:00 +23°C° 0 mm 0 mps 721 mmHg 20%

    Day after tomorrow, 17 December, Tuesday

    Time Temperature Precipitation Wind Pressure Humidity
    00:00 +22°C° 0 mm 0 mps 721 mmHg 21%
    01:00 +21°C° 0 mm 0 mps 720 mmHg 22%
    02:00 +21°C° 0 mm 0 mps 720 mmHg 23%
    03:00 +20°C° 0 mm 0 mps 720 mmHg 23%
    04:00 +20°C° 0 mm 0 mps 721 mmHg 24%
    05:00 +19°C° 0 mm 0 mps 721 mmHg 24%
    06:00 +22°C° 0 mm 0 mps 722 mmHg 23%
    07:00 +25°C° 0 mm 0 mps 722 mmHg 22%
    08:00 +27°C° 0 mm 0 mps 723 mmHg 20%
    09:00 +32°C° 0 mm 1 mps 723 mmHg 18%
    10:00 +35°C° 0 mm 1 mps 723 mmHg 15%
    11:00 +37°C° 0 mm 1 mps 723 mmHg 12%
    12:00 +39°C° 0 mm 1 mps 722 mmHg 11%
    13:00 +39°C° 0 mm 2 mps 721 mmHg 10%
    14:00 +39°C° 0 mm 2 mps 720 mmHg 9%
    15:00 +36°C° 0 mm 1 mps 720 mmHg 12%
    16:00 +33°C° 0 mm 1 mps 720 mmHg 14%
    17:00 +31°C° 0 mm 1 mps 720 mmHg 17%
    18:00 +29°C° 0 mm 1 mps 721 mmHg 17%
    19:00 +28°C° 0 mm 1 mps 721 mmHg 18%
    20:00 +24°C° 0 mm 0 mps 722 mmHg 18%
    21:00 +24°C° 0 mm 0 mps 722 mmHg 19%
    22:00 +23°C° 0 mm 0 mps 721 mmHg 19%
    23:00 +23°C° 0 mm 0 mps 721 mmHg 20%

    18 December, Wednesday

    Time Temperature Precipitation Wind Pressure Humidity
    00:00 +22°C° 0 mm 0 mps 721 mmHg 21%
    01:00 +21°C° 0 mm 0 mps 721 mmHg 22%
    02:00 +21°C° 0 mm 0 mps 720 mmHg 23%
    03:00 +20°C° 0 mm 0 mps 721 mmHg 25%
    04:00 +20°C° 0 mm 0 mps 721 mmHg 26%
    05:00 +19°C° 0 mm 0 mps 721 mmHg 28%
    06:00 +21°C° 0 mm 0 mps 722 mmHg 27%
    07:00 +26°C° 0 mm 1 mps 723 mmHg 25%
    08:00 +28°C° 0 mm 1 mps 724 mmHg 24%
    09:00 +31°C° 0 mm 1 mps 723 mmHg 22%
    10:00 +33°C° 0 mm 1 mps 723 mmHg 20%
    11:00 +36°C° 0 mm 1 mps 723 mmHg 17%
    12:00 +37°C° 0 mm 1 mps 722 mmHg 16%
    13:00 +38°C° 0 mm 2 mps 722 mmHg 14%
    14:00 +39°C° 0 mm 2 mps 721 mmHg 12%
    15:00 +36°C° 0 mm 1 mps 721 mmHg 15%
    16:00 +33°C° 0 mm 1 mps 721 mmHg 17%
    17:00 +31°C° 0 mm 1 mps 721 mmHg 19%
    18:00 +30°C° 0 mm 1 mps 721 mmHg 19%
    19:00 +28°C° 0 mm 1 mps 722 mmHg 19%
    20:00 +24°C° 0 mm 0 mps 722 mmHg 19%
    21:00 +24°C° 0 mm 0 mps 722 mmHg 20%
    22:00 +23°C° 0 mm 0 mps 722 mmHg 20%
    23:00 +22°C° 0 mm 0 mps 722 mmHg 20%

    19 December, Thursday

    Time Temperature Precipitation Wind Pressure Humidity
    00:00 +22°C° 0 mm 0 mps 722 mmHg 20%
    01:00 +21°C° 0 mm 0 mps 722 mmHg 21%
    02:00 +21°C° 0 mm 0 mps 721 mmHg 21%
    03:00 +20°C° 0 mm 0 mps 721 mmHg 22%
    04:00 +19°C° 0 mm 0 mps 722 mmHg 23%
    05:00 +19°C° 0 mm 0 mps 722 mmHg 24%
    06:00 +21°C° 0 mm 0 mps 723 mmHg 22%
    07:00 +24°C° 0 mm 0 mps 723 mmHg 20%
    08:00 +27°C° 0 mm 0 mps 724 mmHg 19%
    09:00 +31°C° 0 mm 1 mps 724 mmHg 16%
    10:00 +34°C° 0 mm 1 mps 723 mmHg 13%
    11:00 +37°C° 0 mm 2 mps 723 mmHg 11%
    12:00 +38°C° 0 mm 2 mps 723 mmHg 10%
    13:00 +39°C° 0 mm 2 mps 722 mmHg 10%
    14:00 +39°C° 0 mm 3 mps 721 mmHg 9%
    15:00 +37°C° 0 mm 2 mps 721 mmHg 12%
    16:00 +34°C° 0 mm 1 mps 721 mmHg 14%
    17:00 +31°C° 0 mm 1 mps 721 mmHg 17%
    18:00 +30°C° 0 mm 1 mps 721 mmHg 18%
    19:00 +26°C° 0 mm 0 mps 722 mmHg 19%
    20:00 +24°C° 0 mm 0 mps 722 mmHg 19%
    21:00 +24°C° 0 mm 0 mps 722 mmHg 20%
    22:00 +23°C° 0 mm 0 mps 722 mmHg 20%
    23:00 +25°C° 0 mm 1 mps 722 mmHg 21%

    20 December, Friday

    Time Temperature Precipitation Wind Pressure Humidity
    00:00 +24°C° 0 mm 1 mps 722 mmHg 21%
    01:00 +23°C° 0 mm 1 mps 722 mmHg 22%
    02:00 +23°C° 0 mm 1 mps 721 mmHg 22%
    03:00 +22°C° 0 mm 1 mps 721 mmHg 22%
    04:00 +21°C° 0 mm 1 mps 721 mmHg 23%
    05:00 +21°C° 0 mm 1 mps 721 mmHg 23%
    06:00 +21°C° 0 mm 0 mps 722 mmHg 22%
    07:00 +24°C° 0 mm 0 mps 723 mmHg 21%
    08:00 +26°C° 0 mm 0 mps 723 mmHg 19%
    09:00 +30°C° 0 mm 1 mps 723 mmHg 17%
    10:00 +34°C° 0 mm 2 mps 723 mmHg 15%
    11:00 +37°C° 0 mm 3 mps 723 mmHg 12%
    12:00 +37°C° 0 mm 2 mps 722 mmHg 12%
    13:00 +38°C° 0 mm 2 mps 721 mmHg 12%
    14:00 +39°C° 0 mm 2 mps 720 mmHg 12%
    15:00 +37°C° 0 mm 2 mps 720 mmHg 14%
    16:00 +33°C° 0 mm 1 mps 720 mmHg 17%
    17:00 +31°C° 0 mm 1 mps 720 mmHg 19%
    18:00 +30°C° 0 mm 1 mps 721 mmHg 20%
    19:00 +28°C° 0 mm 1 mps 721 mmHg 21%
    20:00 +26°C° 0 mm 1 mps 721 mmHg 22%
    21:00 +24°C° 0 mm 0 mps 721 mmHg 23%
    22:00 +23°C° 0 mm 0 mps 721 mmHg 24%
    23:00 +23°C° 0 mm 0 mps 721 mmHg 24%
    Show more